Погода в Невинномысске

Погода в Невинномысске : погода сейчас, прогноз погоды и архив. Всё, что Вы хотите узнать о погоде в Невинномысске!

Поиск расширенной информации на нашем сайте:

Другие новости

Новости СМИ2

Главная страница сайта

Новости сайта

03.07.2017

Напоминаем, что на нашем специализированном сайте Метеоцентр.Азия вы можете получить высокодетализированные автоматические прогнозы погоды по пунктам России, СНГ и мира в авиационном формате (включающие направление и скорость ветра, видимость, явления погоды, количество и форму облачности, нижнюю и верхнюю границу облачности).


Погода в Невинномысске - сегодня

Время (UTC), дата Ветер
(°,м/с) 
Видим.   Явления Облачность Т
(°С)
Тd
(°С)
f(%) Тe
(°С)
Pmin
(гПа)
dP
(гПа)
Po
(мм)
O2
(г/м3)
Тmin Tmax R s Состояние
почвы
09 20.01.18 030 (СВ) 20000 м    10/0 средняя, верхняя 
[Ac trans|Ci sp]
+4.2 -1.5 66 +5  1021.2  -0.5  734  292           
12 20.01.18 060 (СВ) 20000 м    9/0 средняя 
[Ac trans]
+4.3 -1.1 68 +4  1020.3  -0.8  734  291           
15 20.01.18 060 (СВ) 20000 м    10/0 верхняя 
[Ci]
+1.6 -1.6 79 +1  1019.6  -1  733  294    +6.1       
18 20.01.18 070 (В) 20000 м    10/0 верхняя 
[Ci fib]
+0.7 -2.6 79 1018.2  -1.4  732  294           
21 20.01.18 080 (В) 20000 м    10/0 средняя 
[Ac As]
+0.9 -2.7 77 -1  1015.5  -2.6  730  293           
00 21.01.18 080 (В) 20000 м    10/0 средняя 
[Ac As]
+0.3 -1.7 86 +1  1015.2  -0.3  730  294           
03 21.01.18 тихо ()   20000 м    10/0 средняя 
[Ac As]
-0.3 -1.8 90 -0  1013.6  -1.7  728  294  -0.4      10  неравномерный
мокрый или
старый снег
100% 
06 21.01.18 040 (СВ) 20000 м    10/0 средняя 
[Ac As]
-0.2 -1.7 90 1013.5  728  294  -0.6         
09 21.01.18 050 (СВ) 20000 м    8/0 средняя 
[Ac trans]
+4.3 -1.1 68 +5  1011.8  -1  728  289           
12 21.01.18 060 (СВ) 20000 м    8/0 средняя 
[Ac trans]
+2.7 -1 77 +2  1013.5  1.4  729  291           
15 21.01.18 тихо ()   20000 м    10/0 верхняя 
[Ci fib]
-0.6 -2.3 88 -1  1016  1.9  730  295    +5.2       
18 21.01.18 тихо ()   20000 м    10/0 средняя 
[Ac As]
-1.6 -2.6 93 -2  1018  1.7  731  297           
21 21.01.18 160 (Ю) 20000 м    10/0 средняя 
[Ac As]
+2.8 +1 88 +4  1017.9  1.7  732  292           
00 22.01.18 110 (В) 20000 м    10/0 средняя 
[Ac As]
+2.1 +0.5 89 +3  1016.1  -1.9  731  292           
03 22.01.18 080 (В) 20000 м    10/0 средняя 
[Ac As]
+1.4 -0.1 90 1013.3  -2.8  728  292  -2.7      мокрый или
старый снег
50-90% 
06 22.01.18 070 (В) 20000 м    10/0 средняя 
[Ac As]
+0.6 -1.9 83 -2  1011.9  -1.5  727  293           
09 22.01.18 060 (СВ) 5{11}  20000 м    10/0 средняя 
[Ac As]
+2.1 -1.4 78 -1  1008.6  -2.8  725  290           
12 22.01.18 070 (В) 6-11{13}  20000 м    10/0 средняя, верхняя 
[Ac trans|Ci fib]
-0.9 -3 86 -5  1008.8  -0.3  725  293           
15 22.01.18 080 (В) 4{13}  20000 м    10/8 600 м средняя 
[Sc|Ac trans]
-0.4 -1.8 90 -3  1010.1  1.3  726  293    +2.2       
18 22.01.18 080 (В) 4{10}  20000 м    10/10 600 м 
[Sc]
-0.3 -2 88 -3  1010.2  0.1  726  293           
21 22.01.18 070 (В) 20000 м    10/0 средняя 
[Ac und]
-0.9 -2.4 90 -2  1009.9  -0.4  726  294           
00 23.01.18 060 (СВ) 20000 м    ясно 
-2.1 -3.2 92 -2  1009.9  -0.2  726  295           
03 23.01.18 080 (В) 20000 м    3/0 средняя 
[Ac trans]
-2.4 -3.5 92 -3  1009.3  -0.6  725  295  -2.5      мокрый или
старый снег
50-90% 
06 23.01.18 060 (СВ) 20000 м    8/0 средняя, верхняя 
[Ac cast|Ci sp]
-1.7 -3.2 89 -1  1009.2  725  294  -2.9         
09 23.01.18 060 (СВ) 20000 м    6/0 верхняя 
[Ci sp]
+2.5 -1.6 74 +1  1008.2  -0.3  725  290           
Время (UTC), дата Ветер
(°,м/с) 
Видим.   Явления Облачность Т
(°С)
Тd
(°С)
f(%) Тe
(°С)
Pmin
(гПа)
dP
(гПа)
Po
(мм)
O2
(г/м3)
Тmin Tmax R s Состояние
почвы

Для получения пояснительной информации подведите курсор к названию столбца.

ПОГОДА в Невинномысске - архив

Всё, что Вы хотите узнать о погоде в Невинномысске - удобно и подробно!

Выберите нужную дату (начиная с 1 января 2015* года) и нажмите кнопку "Найти".
Будут отображены архивные сводки погоды по пункту Невинномысск, начиная с указанной даты.


Отображать данные в формате CSV (для использования в таблицах Excel)


Внимание! Наш архив погоды предназначен исключительно для личного некоммерческого использования в познавательных целях. Если Вам необходимы официальные справки о состоянии погоды (для производственных, юридических, коммерческих и т.п. целей), обращайтесь в органы Росгидромета.

*Примечание: данная дата относится к архиву по метеостанциям СССР (Россия, СНГ, Балтия).
Архив по метеостанциям Зарубежной Европы и Азии (кроме Китая) хранится 10 дней, по другим регионам земного шара (Китай, Африка, Америка, Австралия, Океания) - 1 день.

Невинномысск - район местоположения метеостанции


Название, широта, долгота, высота метеостанции:
Невинномысск 44.6°ш. 42°д. 343 м над ур. моря [Российская Федерация]

Дополнительная информация

В oтличие oт бoльшинства пoгoдных сайтoв мы публикуем пoдрoбную метеoинфoрмацию в детальнoм прoфессиoнальнoм фoрмате.

Характеристики температуры и влажнoсти вoздуха измеряются на высoте 2 м в тени вдали oт зданий и деревьев.
Скoрoсть ветра измеряется на высoте 10 м (на урoвне рoста челoвека скoрoсть ветра ниже в 1.5-2 раза). Если метеoстанция нахoдится в гoрoде или в лесу, тo скoрoсть ветра занижена на 2-4 м/с пo сравнению с oткрытым местoм. Скoрoсть ветра над акватoриями крупных рек и oзёр, а также на вершинах хoлмoв на 2-5 м/с выше, чем в oбычных услoвиях.
Атмoсфернoе давление в разных тoчках местнoсти мoжет значительнo oтличаться oт давления на метеoстанции, в зависимoсти oт услoвий рельефа (при пoдъёме на 10 м давление пoнижается примернo на 1 мм рт.ст.).